GFSSE_con_mlcape_132.txt.gz
CAPE
419 445 506 774 590 524 617 174 35 239 581 740 868 689 820 1322 1165 1284 1216 919 1294 1125 1233 1117 804 1104 1142 1297 1327 1301 1344 978 1006 1281 1151 1084 1059 1246 1372 1225 1232 1327 1206
413 456 540 626 882 883 665 361 350 421 1093 1544 1479 1527 1591 1099 1422 1394 1443 1063 1437 1453 1390 894 736 687 1004 978 880 1060 1119 1529 1373 1280 1209 1383 1480 1435 1249 1223 1279 1312 1548
343 534 554 642 767 838 625 588 586 798 977 1603 1660 1544 1695 1644 1656 1621 1343 1493 1450 1519 1447 1152 920 1174 982 963 955 886 964 1135 1136 901 773 716 957 1231 1299 1460 1774 1477 1452
515 578 498 657 864 861 830 865 886 1285 1343 1324 1783 1591 1652 1658 1630 1465 1553 1590 609 504 396 963 1258 1233 942 930 760 842 1132 1021 1236 916 787 966 1081 1630 1280 1409 1388 1462 1431
415 710 925 883 962 1131 1102 1101 926 1442 1658 1578 1233 1673 1730 1634 1561 1397 1586 1236 1040 696 233 232 411 646 735 639 578 684 697 1245 1405 263 554 790 636 942 1295 1732 1194 1476 1203
821 1076 1225 1401 1489 1567 1524 1550 1245 1669 1743 1945 1718 1756 1784 1439 1431 1573 1480 1500 1514 1262 1118 660 143 147 293 317 188 412 581 262 243 587 756 539 342 436 513 673 1051 1226 1326
1215 1445 1457 1592 1491 1693 1892 1983 1818 1879 2023 2105 1932 1744 1521 1493 1468 1514 1450 1481 1380 1258 1119 737 288 24 55 0 34 441 794 141 0 15 262 171 328 553 623 648 593 495 519
1203 1532 1572 1665 1817 1620 1789 2045 2061 2072 2138 2023 1644 1650 1591 1594 1781 1577 1522 1437 1438 1284 689 248 39 0 0 0 16 852 703 861 741 293 114 118 396 645 654 554 582 623 611
1249 1503 1563 1738 2044 2116 1878 1813 2171 2080 2123 2156 1917 1887 1617 1539 1529 1679 1588 1527 1530 1521 1343 946 197 0 0 21 105 272 682 461 231 279 580 849 656 828 807 590 601 601 569
781 1017 1300 1542 1678 2108 2047 1666 1424 2109 2242 2230 1941 1746 1497 1361 1673 1770 1671 1664 1565 1501 1263 854 763 559 411 517 478 537 696 221 13 10 0 244 358 361 729 851 658 743 906
210 256 708 1206 1510 1544 1714 1901 1962 1857 2023 1895 1733 1650 1438 1238 1181 1273 1104 1554 1456 1337 1299 1106 592 376 256 411 503 845 1299 383 346 197 11 87 184 469 424 409 548 709 843
375 366 484 753 919 1361 1747 1544 1636 1287 904 880 963 1121 734 849 809 887 645 1263 1473 1227 1073 1170 1227 1317 1224 884 783 989 964 758 36 0 17 172 410 642 718 816 940 1098 1362
623 809 856 873 717 786 1193 1022 1137 954 779 70 267 381 762 877 844 443 234 3 3 479 1330 1224 1161 1095 1115 1021 1173 1365 694 8 0 0 0 94 399 938 1361 1590 1684 1808 2084
602 704 850 745 673 500 711 895 1178 1207 1041 528 239 743 247 175 187 124 78 101 335 524 720 974 691 828 628 981 1051 1019 770 0 0 0 0 289 485 918 1395 1720 1856 2169 2361
439 17 583 433 557 524 924 1111 1155 1130 852 781 660 546 219 0 0 164 408 238 446 569 780 920 808 615 800 635 528 338 175 0 14 90 52 343 630 797 1152 1498 1730 2057 2498
240 399 488 279 820 905 829 914 1054 1053 630 101 109 90 162 276 509 585 478 799 720 514 560 634 861 888 615 594 651 278 115 121 168 426 465 338 830 1036 1207 1604 1880 2148 2343
297 436 739 841 838 871 588 756 849 769 486 32 13 196 440 371 435 575 858 757 1440 1585 1785 1199 1252 1168 582 580 643 870 1000 1112 829 712 475 347 678 979 1097 1635 2264 2063 2146
422 529 608 423 345 551 622 427 526 677 638 323 11 161 73 199 157 698 637 1102 1455 1094 1470 1326 1463 1161 893 655 652 804 907 982 1032 1054 984 837 577 317 559 1113 1676 2428 2193
286 334 365 208 262 166 223 329 391 747 520 131 205 1 180 428 442 251 502 1019 1138 875 1467 1671 1890 2151 930 744 691 676 596 448 418 870 681 297 104 53 290 663 1004 1238 2096
269 168 69 57 183 321 687 638 345 706 432 10 578 602 609 47 0 151 1028 765 1326 1559 1522 1752 2090 2316 1791 1615 1529 441 104 219 313 359 111 104 182 2 37 371 605 958 1712
292 223 40 133 216 349 250 414 519 606 567 609 890 792 339 0 333 1004 771 479 877 856 1732 2060 2236 2043 2204 1244 967 366 0 29 153 264 48 0 0 0 0 162 358 670 1562
259 307 116 94 81 330 309 235 602 802 692 630 771 948 346 97 459 1112 1198 951 500 826 1130 1853 2240 2142 1844 1142 1460 542 447 192 47 176 72 3 0 7 34 78 148 293 876
200 245 229 151 82 428 489 501 604 767 677 604 825 765 946 1033 978 1050 1226 784 0 224 880 1811 2143 1751 976 399 235 231 152 91 44 15 96 62 34 12 45 35 0 13 255
192 211 217 99 93 274 457 454 376 349 420 372 534 481 556 807 330 732 1349 1000 718 940 1460 1804 2094 935 207 482 44 17 0 9 18 0 0 14 0 0 0 0 0 0 34
238 243 193 191 204 179 341 513 245 227 202 333 409 590 285 858 649 719 1094 1223 1276 905 1250 1598 1783 1048 0 280 2 9 116 47 0 5 4 2 0 5 11 4 0 0 23
220 297 219 139 70 124 312 478 531 233 297 478 258 463 316 559 803 893 906 1162 1160 667 840 1824 1719 1705 63 611 47 42 39 519 526 180 95 123 77 34 22 4 2 36 17

GFSSE_con_mlcape_135.txt.gz
CAPE
114 406 128 361 488 249 159 355 408 181 242 475 210 767 1192 953 1157 1273 1213 1293 1142 1125 1125 1088 1178 1477 1702 1363 1265 1343 1427 1403 1393 1355 1326 1367 1392 1248 853 783 782 737 864
388 399 272 310 331 682 369 160 156 312 451 273 875 1504 1363 1365 852 1124 1406 1269 1280 786 911 903 1242 1288 1214 1315 1380 1105 1137 1051 1284 1384 1476 1530 1364 1532 1358 1325 1358 1305 1266
288 567 759 850 915 962 544 529 270 31 409 389 799 1220 1198 1409 1445 640 1423 1388 1240 920 750 1097 1218 1214 1105 1195 1217 1241 1501 1500 1429 1460 1350 1068 1454 1236 1339 1520 1558 1409 1510
380 550 608 839 1020 889 829 865 563 352 834 1190 1304 1475 1606 1626 1460 1623 1349 1036 1075 1253 1226 1513 1421 1269 1303 1166 1216 1293 1327 1469 1391 1316 918 1112 1449 1432 1399 1447 1401 1720 1645
358 493 698 942 1007 1052 995 1033 1065 1074 1361 1709 1409 1803 1720 1565 1571 1593 779 519 328 376 803 1112 1179 1053 1008 909 851 940 1450 1530 805 811 875 622 879 1526 1616 1447 1609 1300 1123
438 797 964 932 1247 1319 1352 1336 1494 1617 1595 1470 1790 1855 1825 1420 1524 1398 1711 1907 1665 1172 701 355 366 601 631 400 412 766 1134 1787 659 594 561 549 405 799 1003 1477 1676 1729 1801
669 1056 1411 1592 1682 1679 1728 1627 1795 1905 2156 1935 1925 1887 1517 1681 1562 1511 1566 1500 1300 1197 850 640 337 225 183 108 382 933 608 431 316 480 364 245 485 701 795 756 665 639 800
889 1423 1590 1674 1769 2034 2064 1902 1908 2035 1957 1653 1837 1731 1756 1686 1732 1605 1518 1412 1361 997 667 368 164 162 125 181 663 1366 708 537 172 4 0 84 549 836 821 716 734 774 771
1311 1447 1542 1581 1780 1832 2090 1905 1740 2028 1279 1348 1308 1600 1829 1916 1808 1673 1620 1588 1507 1458 1258 606 192 285 494 689 688 857 1048 1403 521 456 666 369 639 881 860 696 738 787 821
1232 1276 1610 1740 1388 1532 1592 2042 1912 1977 1784 2009 1799 1691 1860 1827 1872 1872 1624 1617 1550 1428 1174 843 565 502 580 866 991 1211 1238 593 24 27 196 530 587 483 676 944 836 861 1055
1188 1097 1354 1625 1443 1299 1544 1781 1989 2166 2207 1972 1794 1564 1281 1222 959 1038 1260 1737 1655 1621 1545 1345 932 599 435 436 423 626 1379 350 109 219 0 3 56 381 549 587 690 914 1127
581 785 980 1178 1482 1595 1906 1615 1494 1714 1524 1352 1098 1097 517 696 851 1257 896 695 843 1170 1536 1463 1325 1385 1317 871 747 1040 1234 1069 408 29 0 106 426 825 903 1012 1200 1380 1588
52 290 627 1066 1184 1389 1406 1341 1277 1077 756 509 579 525 671 840 636 387 100 0 0 369 612 898 884 1089 1053 1069 999 1125 1086 163 0 0 0 47 314 817 1452 1743 2003 2237 2302
146 276 516 661 729 831 1051 993 909 819 386 0 109 503 391 245 255 112 227 387 473 533 683 760 815 684 706 629 819 804 434 1 0 0 0 0 379 731 1515 2107 2342 2268 2375
592 612 690 538 546 453 617 817 1029 1118 991 631 614 438 12 44 0 216 352 566 695 582 581 844 882 884 600 489 444 590 347 23 0 0 0 131 868 1467 1631 1902 2279 2271 1901
498 471 677 520 419 380 630 915 1045 1051 794 663 520 372 16 86 484 501 812 736 1043 1033 1076 774 1005 756 486 415 352 51 13 0 0 55 276 708 1166 1305 1591 1891 2175 2556 2616
390 53 551 423 391 634 678 787 901 942 545 56 3 287 376 315 549 761 762 1225 1367 1438 1616 1515 1205 1007 530 438 453 635 906 1095 1173 1073 827 571 631 1230 1603 1710 1842 2078 2532
142 274 374 578 825 709 564 628 742 723 337 4 66 320 216 490 334 673 613 1062 1116 1187 1438 1777 1631 826 775 502 444 621 763 999 955 1016 909 296 188 579 993 1452 1702 1888 2485
259 409 638 419 519 711 487 400 394 610 397 103 24 36 285 308 568 275 867 1131 1063 1419 1516 1629 1978 1799 761 587 505 429 414 615 841 650 249 105 51 73 539 874 1407 1817 2309
285 423 441 249 215 270 317 405 300 496 534 136 208 0 341 63 155 238 656 1029 1222 1592 1894 2097 1968 1619 1146 689 296 257 234 274 336 283 271 149 28 0 352 614 749 860 1593
245 298 227 170 159 287 285 477 266 384 501 111 425 672 495 0 251 1010 383 794 695 1016 1665 2151 2252 1339 527 159 179 137 166 158 165 130 39 0 0 0 57 87 210 412 551
155 126 56 9 148 275 241 366 356 561 525 124 534 735 151 0 435 1162 868 387 329 982 1569 1948 1942 1200 424 314 588 305 444 286 23 73 46 11 31 19 26 25 1 64 292
136 29 0 39 85 298 257 505 588 639 607 473 641 726 606 577 528 1037 1026 130 372 722 1352 1757 1186 787 300 49 201 317 274 304 76 0 26 60 23 4 4 0 0 0 34
190 107 0 12 39 204 222 237 454 400 496 381 584 456 626 932 685 1038 1107 682 747 1122 1366 1709 499 416 495 250 22 34 0 28 41 10 1 11 9 0 0 0 0 0 12
164 231 95 46 1 216 319 244 233 306 273 201 297 549 293 615 540 544 1171 1058 919 896 1297 1513 340 23 89 28 0 95 70 4 0 2 0 0 1 2 0 0 13 9 122
158 216 177 106 38 173 256 297 216 169 177 299 255 322 353 324 671 753 776 962 918 447 1287 1522 828 405 700 317 91 27 261 614 330 127 86 30 5 6 0 0 60 66 93

GFSSE_con_mlcape_138.txt.gz
CAPE
82 246 94 123 246 358 566 569 342 291 348 507 160 232 958 1239 1163 1255 1189 781 850 1034 1079 1312 1275 1230 1341 1358 1377 1369 1320 1094 1224 1369 1404 1391 1218 824 822 768 701 888 1374
192 249 132 240 108 103 154 184 239 100 81 222 618 877 890 1195 1091 1183 1217 1170 703 831 955 1056 1204 1244 1130 1075 1260 1188 1173 1239 1450 1592 1479 1418 1484 1512 1464 1597 1507 1197 953
245 425 190 133 126 89 59 21 40 146 73 227 996 1212 1273 1341 1253 1357 1128 976 614 682 1134 1160 1167 1202 1312 1376 1451 1447 1383 1351 1489 1446 1205 1279 1318 1383 1435 1592 1509 1613 1543
352 597 426 339 330 299 171 4 2 9 143 110 323 1307 1377 1178 1445 1374 1107 1092 1351 1175 1376 1294 936 1124 1094 1345 1375 1342 1458 1400 1297 857 919 1292 1361 1629 1656 1537 1474 1561 1684
420 550 675 629 820 338 360 32 106 186 292 509 797 1104 1579 1515 1441 484 528 328 570 1088 1237 1001 682 649 921 768 883 1346 1499 1263 1002 825 646 642 1190 1750 1749 1572 1621 1157 1353
412 643 1052 1107 997 954 721 432 468 464 803 1098 1359 1206 1550 1638 1365 1449 1324 1240 957 771 528 454 544 594 381 418 711 895 1578 1679 538 576 458 324 463 1007 1346 1634 1822 1933 1906
518 904 1157 1285 1356 1554 1269 734 770 867 1262 1334 1467 1690 1628 1405 1493 1408 1344 1106 896 721 755 604 376 321 223 487 1415 879 825 762 367 441 146 180 360 700 765 725 652 617 699
618 1171 1551 1535 1804 1814 1803 1592 1425 1038 941 1996 1423 1680 1580 1449 1665 1551 1336 1212 963 562 443 337 275 220 345 642 1459 1000 688 362 0 8 0 64 522 836 883 783 771 777 779
1092 1299 1378 1573 1786 1643 1927 1869 1869 1058 976 1468 1632 1768 1901 1806 1695 1659 1615 1428 1262 1054 525 495 454 543 688 1069 942 1020 1084 1443 329 289 670 281 587 906 945 747 816 934 1096
1198 1109 1143 1277 1168 1585 1838 1779 1782 1427 1529 1689 1888 1888 1884 1959 1977 1717 1605 1735 1623 1444 928 678 544 467 504 659 822 1167 1000 814 33 49 13 458 607 714 824 912 941 1033 1179
1119 935 1219 1317 1157 1170 1750 1965 1910 1918 1777 1863 1842 1772 1247 893 972 903 1575 1814 2046 1946 1794 1401 1063 1108 1355 904 733 1170 1448 425 30 167 32 1 284 809 1264 1201 1239 1385 1548
773 793 971 1276 1307 1230 1724 1741 1745 1864 1384 1435 1273 689 487 604 973 885 411 21 219 634 751 1221 1235 1238 1025 894 906 1056 1145 803 602 84 15 173 829 1087 1708 2023 2124 2044 2137
735 873 929 925 1141 1182 1263 1353 1290 1153 828 530 441 392 552 562 320 210 70 233 330 579 550 600 716 735 920 926 676 731 642 9 0 0 0 24 371 875 1273 1690 2166 2380 2428
371 436 614 920 884 1084 985 994 806 525 244 180 242 416 340 227 107 164 259 353 488 481 595 681 802 770 627 382 404 613 392 0 0 0 26 423 652 1061 1431 1767 2041 2542 2504
4 75 227 621 646 691 853 758 743 666 474 199 300 331 21 23 13 302 621 630 648 623 458 626 738 660 404 228 141 510 203 0 0 112 178 670 1210 1323 1430 1860 2253 2453 2540
60 167 350 288 361 385 551 733 976 927 790 703 570 352 40 62 423 647 779 1058 1043 1133 1291 779 919 565 351 519 258 62 20 72 146 174 437 1188 1255 1504 1934 2096 2097 2501 2896
388 382 444 306 251 190 356 741 846 887 569 339 336 160 332 235 540 652 732 981 1145 1046 1199 1386 1170 686 384 519 697 807 963 1053 1084 860 743 726 1170 1590 2003 2212 2174 2519 3198
349 277 387 498 285 312 416 644 714 650 433 1 0 235 291 318 508 427 764 1008 1099 1307 1439 1674 1381 758 429 460 589 714 833 965 988 1058 727 235 313 534 1034 1830 2307 2540 2750
289 207 200 407 368 587 460 442 489 472 393 34 6 15 291 244 375 364 828 1111 1450 1761 1764 1726 1622 776 517 488 467 454 519 706 751 689 210 58 20 117 584 738 1105 2110 2297
191 144 228 335 462 526 331 263 221 444 309 110 37 0 223 26 94 728 602 850 1071 1516 1890 1571 1126 877 622 536 481 389 363 424 468 376 236 133 56 13 54 85 307 782 1358
129 245 357 192 164 373 324 313 267 373 375 242 180 395 348 0 465 341 711 438 844 1345 1789 1574 981 518 332 225 267 254 167 137 203 176 85 0 1 30 27 33 52 151 689
178 188 329 124 124 171 178 281 240 276 398 73 170 583 111 1 376 1045 553 152 587 1284 1553 1553 1041 519 302 304 564 367 532 511 74 95 79 31 26 13 14 0 1 49 295
230 166 232 100 92 166 158 387 321 369 419 188 360 429 420 141 196 945 313 296 560 1052 1391 905 727 502 455 177 252 412 389 353 141 1 6 45 37 0 1 0 0 57 501
172 148 140 63 56 202 210 436 380 257 356 393 413 549 414 649 696 718 757 505 751 1119 1346 1124 263 346 118 136 56 36 14 12 54 24 2 9 2 0 0 0 112 339 377
119 139 88 0 66 191 214 211 310 278 316 241 281 445 370 593 559 364 961 864 640 841 1265 1218 43 72 17 6 21 49 131 34 18 60 40 22 0 0 56 138 279 391 260
118 136 130 1 15 170 299 149 122 234 194 246 177 304 367 259 472 476 767 908 732 390 1007 1175 363 493 515 233 213 16 329 536 329 190 230 143 84 8 28 84 205 408 663

GFSSE_con_mlcape_141.txt.gz
CAPE
311 154 60 128 264 227 598 562 498 606 386 217 183 0 605 849 1185 1079 820 864 1056 1226 1355 1347 1264 1308 1223 1226 1253 1180 970 1321 1484 1576 1417 1326 975 947 1006 851 723 1215 1775
213 205 104 124 112 157 489 296 223 361 264 168 0 2 549 968 869 1019 862 823 938 914 1247 1249 1205 1108 1257 1282 1267 1341 1370 1372 1509 1535 1604 1713 1577 1589 1799 1781 1610 1274 1249
173 185 145 57 71 144 81 161 167 221 207 398 668 695 1053 1229 983 840 814 744 861 1166 917 1074 1374 1428 1403 1460 1458 1223 1365 1576 1454 1462 1397 1349 1624 1771 1732 1853 1791 1733 1692
395 349 30 75 110 50 26 49 122 56 0 108 415 884 1080 1013 1047 1084 1220 1163 1223 1260 917 1146 1198 1142 1312 1224 1366 1476 1366 1380 1187 1051 1266 1099 1170 1944 1855 1703 1825 1841 1622
558 531 255 228 47 41 24 15 50 20 41 86 384 1221 1355 856 388 381 515 785 1273 1236 1061 792 930 866 713 918 1320 1582 1558 999 913 833 552 1475 1604 1878 1962 1905 1485 1360 1409
468 534 508 303 76 114 68 45 63 76 149 127 353 1043 1342 1322 1409 1177 926 953 783 561 491 681 657 381 519 967 886 1782 1772 847 564 635 313 247 606 1248 1550 1671 1926 2050 1913
492 655 553 330 243 142 182 130 104 269 225 634 1272 1465 1408 1322 1414 1126 839 696 667 726 725 569 455 403 861 1456 991 791 884 416 275 278 120 176 324 807 761 636 577 531 587
622 1092 992 543 575 535 152 238 295 386 642 1252 1561 1556 1492 1717 1290 1089 931 784 508 568 544 499 371 453 889 1150 1074 872 706 467 56 97 155 272 516 906 898 768 769 780 782
978 1196 1360 1506 1385 869 641 450 281 677 1406 1745 1606 1610 1547 1454 1460 1401 1241 1080 885 678 701 732 470 373 652 789 1002 1134 1193 946 305 333 586 423 610 1132 1273 1066 998 1208 1319
1062 1120 1482 1718 1477 1808 1528 991 898 716 1465 1766 1729 1797 1793 1914 1620 1724 1585 1536 1419 1208 1066 711 465 350 484 661 843 1206 994 752 219 239 73 393 500 847 1088 1163 1218 1352 1538
1124 1312 1497 1460 1370 1874 1843 1595 1759 1634 1804 1661 1857 1292 940 1081 1121 1200 921 1038 1296 1343 1243 1134 1178 1251 1471 910 883 1425 1324 839 430 364 232 19 406 1218 1930 1985 2160 2159 2050
1071 1341 1600 1429 1161 1652 1576 2017 2006 1749 1506 1401 1079 707 956 1028 901 305 43 252 571 737 613 768 875 1057 1082 1324 1415 1216 950 852 499 177 227 82 733 1111 1713 2072 2175 2183 2243
907 977 1299 1455 1449 1540 1547 1457 1477 1173 823 563 454 829 835 740 395 416 647 915 1089 816 1098 1081 1212 1193 1363 1342 1148 856 290 182 97 97 130 262 444 954 1312 1705 1961 2241 2529
821 926 1088 1230 1261 1359 1522 1018 869 638 428 446 632 610 460 365 299 670 1073 1162 1206 1054 1312 1523 1558 1318 1016 794 980 924 548 211 343 541 583 680 873 1373 1737 1943 2271 2637 2749
482 614 694 1030 1113 1132 1110 1085 995 760 648 461 947 355 141 140 665 1187 1377 1657 1676 1554 1275 1404 1266 884 668 436 936 814 540 280 240 675 1055 961 1540 1764 2025 2357 2564 2699 3367
85 100 366 728 880 871 894 1148 1298 1367 1319 1234 975 437 227 695 1213 1289 1612 1652 1839 1888 2282 1618 1571 958 1071 967 579 433 408 491 590 641 858 1851 1646 1941 2261 2406 2508 2728 3392
13 104 309 456 633 587 853 1237 1369 1370 1153 885 646 493 763 906 1260 1127 1472 1663 1898 1908 1959 2109 1662 929 1066 1229 1299 1456 1795 1924 2146 1664 1559 1274 1408 1262 1787 2363 2598 3048 2863
270 341 456 287 395 455 619 1139 1219 1247 981 200 86 655 662 791 1039 1263 1662 1751 2193 2335 2557 2401 1334 876 928 1078 1223 1283 1452 1718 1831 1888 833 315 517 1247 1600 1668 2212 3140 2925
603 622 545 653 432 431 618 999 1032 950 839 142 404 300 762 803 880 1311 1533 1893 2357 2566 2239 2318 1635 1115 1073 1079 1014 1096 1256 1486 1409 1059 380 174 277 409 954 704 991 1699 2308
480 558 497 722 666 772 748 707 730 856 881 396 239 101 736 416 494 1226 1452 1593 2048 2667 2486 1923 1664 1363 1309 1221 946 987 1006 1159 1379 1118 695 337 90 14 281 460 842 1078 1303
449 476 325 504 636 811 600 622 660 519 870 546 556 260 664 156 1212 1058 1283 1075 1992 2356 2472 1800 1338 1119 871 818 884 1095 725 529 725 738 259 119 59 44 365 267 423 848 1466
266 311 335 443 444 727 787 677 707 771 819 761 743 1157 447 22 1078 1659 772 827 1378 2342 2037 2287 1677 1081 842 895 1162 1170 1339 1541 610 324 197 132 96 60 106 183 293 887 1455
278 277 418 523 337 610 555 622 655 701 808 336 517 969 819 159 646 1604 718 1073 1472 2160 1737 1281 1437 1113 1167 463 538 802 673 358 369 148 106 182 76 79 132 347 636 967 1264
378 366 439 501 332 380 496 628 524 540 493 528 569 990 1083 1026 1096 1258 1394 1215 1473 1919 1806 1385 591 884 554 627 273 191 146 127 210 315 126 96 67 152 626 924 1193 1170 1145
391 382 361 422 294 365 446 759 613 592 527 776 790 946 765 1182 1321 766 1638 1558 1327 1602 2036 1742 389 611 393 399 321 329 471 330 273 255 266 110 220 453 575 903 1247 1682 1511
329 336 272 251 208 360 497 638 687 583 518 578 647 734 842 868 1103 994 1167 1582 1664 1113 1664 1769 1074 1177 1277 1182 1063 700 1057 1273 1243 685 1092 804 716 644 976 1140 1252 1577 2109

GFSSE_con_mlcape_144.txt.gz
CAPE
436 77 276 364 260 723 483 354 275 449 367 49 190 409 763 1183 576 564 864 1091 1497 1484 1351 1394 1407 1258 1094 925 1137 1141 1292 1311 1398 1353 1237 1041 1103 1157 1066 1036 1233 1440 1771
154 107 225 141 335 198 375 641 481 337 8 0 19 642 979 1171 1158 1007 1162 1092 1294 1234 1250 1144 1205 1153 1270 853 1054 1099 1190 1532 1615 1718 1703 1596 1635 1990 1882 1887 1678 973 1320
162 67 67 91 137 152 153 389 549 152 405 737 666 1004 1126 967 1051 921 1044 1299 1251 1126 1278 746 1285 1447 1295 1309 1149 1368 1610 1468 1309 1257 1451 1295 1705 1909 2003 1929 1922 2018 2012
116 55 37 46 59 119 139 149 125 177 200 82 871 1046 1242 1223 1377 1264 1088 1296 1235 940 886 984 1150 1038 1159 1517 1430 1231 1266 1225 970 1034 916 836 1046 1882 1904 1928 2008 1852 1853
164 52 8 18 27 19 90 91 13 13 182 561 1081 683 963 991 668 854 1330 1313 1224 1103 969 1057 769 815 1114 1507 1627 1581 963 704 784 216 624 980 878 1918 2136 2191 1627 1336 1262
122 24 47 44 35 20 18 52 73 125 55 198 412 823 1286 1248 1256 1000 991 822 712 688 829 684 564 1046 1675 1069 1606 1481 833 321 297 128 106 81 412 1255 1486 1491 1758 1879 1898
114 28 66 97 21 46 76 78 140 152 139 287 1035 1038 1272 1373 1027 794 745 710 775 799 771 567 665 1293 1497 933 909 1053 544 202 202 129 187 406 259 957 904 822 716 652 545
285 151 80 215 80 53 95 41 117 194 334 372 1007 1225 1285 1103 1072 883 636 558 700 691 647 453 527 970 1138 1185 1000 966 736 493 279 394 521 534 542 1060 1057 948 897 959 995
663 644 453 306 291 105 109 155 221 159 322 791 951 1261 1417 1447 1363 1113 886 734 743 794 731 454 428 487 766 979 1106 1215 1269 395 393 766 765 768 501 1168 1281 1336 1265 1401 1487
706 936 1053 922 582 312 384 271 269 331 844 1226 1508 1397 1499 1296 1240 1481 989 1239 886 769 621 502 402 354 552 694 863 1477 1022 399 546 590 753 441 375 951 1398 1525 1576 1701 1844
807 992 846 902 1269 936 712 400 418 898 1161 1139 1017 846 816 447 573 326 374 1085 1033 988 1042 866 913 1100 1206 859 954 1172 1299 730 719 791 829 111 523 1295 2060 2309 2486 2550 2375
1042 1195 980 602 891 982 969 388 759 1086 916 895 922 1229 975 913 445 389 399 501 697 600 508 660 758 931 1160 964 1033 1107 717 920 663 858 779 279 718 1307 1792 2052 2204 2403 2509
935 1002 1265 1289 1256 816 951 845 688 467 369 665 1226 1010 1010 766 973 1080 1186 1332 1448 1233 1238 1204 1310 979 921 766 892 579 665 634 770 1055 877 585 823 1338 1825 2306 2594 2906 2996
714 801 1089 1254 1443 1061 578 366 351 287 306 444 820 882 883 673 1221 1405 1482 1567 1525 1550 1722 1595 1160 1398 982 1330 1234 1055 895 963 1252 1448 1224 818 1571 2157 2335 2516 2746 3177 3438
565 541 726 1124 1291 1196 596 483 492 286 241 534 698 587 654 994 1430 1508 2106 1658 1765 1690 1602 1627 1405 1327 1028 1075 1124 1182 997 1210 1325 1602 1655 2076 1800 2286 2483 2727 2845 3409 3506
125 129 381 844 1101 1191 1009 1167 1129 835 874 852 799 784 1202 1511 1725 1441 1651 1492 1671 1738 1883 1834 1885 1238 1264 1061 1071 1212 1503 1944 2226 2198 2235 2362 1572 1648 2389 2683 3176 3494 3166
2 7 110 529 816 1082 1253 1319 908 875 733 774 718 1200 1673 1811 1906 2065 1746 1741 1892 2412 2784 2496 1979 1583 1102 1101 1561 1937 2164 2479 2678 2732 2255 1443 1918 1934 2012 2340 3073 3490 2911
0 112 81 84 628 1141 1328 1425 956 1259 1020 468 591 826 1547 1767 2033 2080 1687 2084 3200 2660 2567 1916 1389 949 876 974 1588 1905 2134 2271 2540 2338 1533 985 1343 2157 1668 1293 1673 2432 2733
314 133 56 187 425 794 1263 1125 1148 1215 847 515 919 741 1476 1523 1722 2060 2036 2687 3163 2423 2419 2315 1781 1758 1558 1620 1469 1857 2218 2240 2121 1732 1151 973 653 1311 1577 1366 1307 1219 2110
547 601 202 402 542 1046 1278 1480 1205 1117 1057 658 815 601 1423 1083 1516 1959 2049 2555 2601 2255 2142 2391 2733 2332 2216 2071 1348 1680 1820 1964 2043 1909 1642 1234 840 59 1007 1039 1761 1903 1518
540 568 417 704 1177 1274 1070 633 781 731 1076 819 802 388 1146 1006 1937 2219 1459 1739 2278 2118 2522 3075 2377 2342 1842 2039 2108 1504 1851 1547 1596 1316 813 470 365 404 1119 765 1419 2014 2011
539 545 625 865 1239 1071 925 810 792 669 891 763 876 1384 915 790 1988 1908 1645 1375 2430 2204 2852 3065 3007 1920 1879 1950 1393 1804 753 2119 1273 778 651 403 1048 544 382 970 1743 2194 2273
474 532 537 826 1174 1224 1048 1244 1200 935 1101 612 812 1082 805 691 1175 2234 1766 2182 2346 2208 1829 2186 2404 2421 1662 1346 1484 1123 529 335 735 451 651 564 635 399 963 1635 1861 2034 2310
490 442 544 863 1013 1296 1387 824 834 526 279 256 606 890 1072 1280 1319 1541 1772 1866 2205 1907 1827 1920 1048 1926 1668 1119 942 761 825 855 697 694 409 565 565 1162 1998 1813 1842 2011 2169
461 441 524 840 917 722 980 1118 448 418 353 561 630 1325 1012 1474 1665 1113 1724 1933 1941 1386 1635 2032 2010 2273 1782 1548 1275 669 1383 1201 1559 1079 616 702 899 1136 1479 1607 1689 1664 2064
440 506 496 747 894 856 961 733 656 579 583 454 670 744 690 766 822 1294 1306 1312 1576 1756 1654 1707 2182 2453 2522 2595 2244 2186 1824 1659 1428 1460 1322 1164 1238 1104 1522 1392 1558 1822 1838

GFSSE_con_mlcape_147.txt.gz
CAPE
325 259 385 632 773 476 359 523 580 303 298 448 503 1088 767 377 77 206 953 1130 1211 1218 1300 1367 1323 1142 1233 1298 1272 1327 1222 1062 745 591 803 1030 1219 1145 1266 1389 1261 961 1971
155 186 198 337 645 674 790 651 199 79 94 183 1025 1188 976 1013 1136 1121 1202 1173 1286 1204 1321 1117 886 1121 1132 1187 1268 1435 1563 1613 1448 1728 1773 1660 1845 1863 1826 1320 902 1537 1835
152 141 168 105 212 605 532 394 187 193 128 77 1181 1157 1028 797 995 1057 1196 1285 1235 792 668 1445 1350 1397 1201 1392 1779 1822 1535 1326 1503 1817 1657 1291 1427 1793 1856 1794 2047 2082 1729
64 67 68 136 132 128 469 245 92 526 1092 708 968 1199 1018 805 860 1188 1076 975 802 720 1329 1132 1127 1253 1535 1257 1081 1207 830 631 869 1326 1619 914 883 1771 1712 1868 1818 1980 2054
2 0 57 103 163 147 124 81 102 354 817 912 619 871 1053 918 1057 1058 1265 1276 1147 1231 1138 919 1077 1198 1487 1442 1318 881 425 535 635 683 1080 969 837 1902 2316 1835 1526 1550 1688
20 1 51 23 24 100 20 123 136 176 280 266 650 764 955 989 885 1102 987 979 947 1057 792 851 1573 1694 1262 1513 1389 826 232 456 908 320 192 267 616 1248 1168 1278 1469 1706 1847
0 2 17 15 0 57 34 81 150 100 6 124 818 753 954 911 949 919 905 838 872 960 754 958 1595 1568 1012 1197 1224 442 117 371 435 500 665 574 477 832 822 795 756 687 589
53 18 18 45 90 61 76 38 67 111 108 121 466 748 1031 1058 655 678 832 972 887 860 635 665 1010 1083 1201 1089 1055 553 380 877 569 738 827 695 618 1076 1060 1013 1011 1092 1182
137 120 62 87 125 117 172 113 124 162 286 423 385 912 1356 1282 905 820 830 834 930 915 646 489 472 740 843 1109 1417 740 720 739 812 1069 970 958 728 1305 1408 1501 1593 1695 1730
454 567 294 278 363 240 173 168 158 374 345 933 1336 1439 462 553 806 453 341 811 848 716 499 393 299 379 558 698 935 952 826 948 704 814 815 701 709 1269 1964 2292 2235 2225 2261
587 473 466 410 353 279 211 157 191 494 715 258 421 1041 714 524 546 1206 395 976 1112 821 724 733 572 802 1337 954 742 1334 1605 932 702 914 979 582 834 1565 2185 2513 2712 2760 2874
608 635 376 458 508 362 276 297 249 257 470 744 599 758 479 693 316 143 263 511 500 343 551 807 946 1171 1706 1879 1327 1326 1390 844 1045 1146 875 796 1190 1543 2079 2405 2764 3072 3189
360 858 398 347 0 174 152 466 914 747 727 1211 1471 1312 1046 875 935 864 1086 1444 1422 1346 1602 1379 1480 1395 648 509 511 734 875 980 1332 1737 1102 1260 1864 2343 2555 2737 3033 3211 3643
793 908 838 644 146 437 777 949 752 315 541 714 1258 1134 1148 504 1328 1185 751 1063 1447 1012 1004 933 950 994 1255 1197 1078 787 997 1223 1497 1951 2011 1919 1838 2282 2708 3119 3124 3554 3609
685 817 974 1050 957 763 561 301 260 157 327 471 695 1011 1073 535 1065 967 1116 1343 1538 942 909 836 1088 1060 969 1034 1109 1191 1222 1574 1931 2086 2574 2340 1717 2224 2796 3019 3578 3460 3079
438 476 880 988 720 719 594 646 437 318 495 512 566 1138 1788 1100 1671 1007 1144 1229 1088 1336 1022 1205 1801 1265 1077 1088 1323 1754 2202 2475 2856 2869 2587 2571 1848 2274 2711 3174 3497 3214 2702
247 202 563 738 895 985 996 622 656 257 297 376 525 1499 1887 1757 1676 2367 992 1289 1800 1576 2198 1516 1306 1212 974 1237 1639 2112 2206 2574 2839 3015 2048 1881 2068 2078 1910 2258 2455 2802 2568
23 55 186 385 778 829 1180 673 405 537 350 304 354 920 1738 1826 2539 1896 1433 2169 1871 1564 1022 857 669 679 634 832 1545 1797 1945 2237 2548 2500 1383 1460 1407 2246 1722 1354 1443 1897 2025
17 66 41 230 738 888 1040 884 1133 1200 475 308 628 1104 1566 1592 2280 1918 1762 2165 1861 1453 1260 1030 836 1201 717 1160 1322 1393 2095 2067 1996 1907 1562 1144 1102 1132 1733 1422 1700 1799 1688
149 89 38 181 670 851 832 1049 1060 945 715 661 802 1427 1531 1297 2104 2687 1660 2108 2168 1464 1501 2227 2820 2046 1789 1854 1230 1295 1708 1882 2075 1890 1786 1439 675 452 1306 1219 2190 2083 1761
515 169 221 335 706 977 895 413 936 942 870 691 767 1000 1226 1421 1878 2541 1330 1515 2235 1630 2425 2620 2477 2185 1757 1997 2039 1242 1816 1987 1772 1104 514 595 817 792 1348 1603 2063 2162 1894
565 557 462 778 1221 1473 902 624 968 707 865 813 826 1232 1216 1385 2021 2225 2151 1442 1959 2503 2585 2894 2997 2298 1811 1770 1512 1702 1016 775 1130 414 738 625 1163 636 675 1840 2093 2511 1807
440 591 722 972 1382 1229 1286 1280 1435 936 1338 760 1094 1221 672 1026 1494 2077 2101 2471 1862 2207 2068 2079 2309 2684 1615 1912 1490 972 783 705 964 622 414 440 798 713 1679 1934 1936 2413 2036
454 583 745 981 1198 1187 1318 1052 723 628 267 320 515 986 1065 1029 1208 1526 1730 1894 2016 2020 1756 1809 2090 2434 1817 1430 1226 1050 1368 1327 925 995 477 637 1035 1596 2048 1638 1672 1983 1987
474 540 527 902 1166 1186 1118 1005 916 897 775 382 818 1035 1312 1306 1278 1082 1563 1787 1882 2001 1874 2112 2502 2640 2674 2154 1904 1251 1837 1579 1635 1119 318 876 869 1174 1358 1031 1162 1227 1087
406 495 489 741 1046 1248 1064 1036 1145 854 502 372 525 1028 594 949 1012 977 1084 1550 1675 1961 1919 1977 2172 2735 2548 2651 2087 2471 1640 1315 1037 1019 787 907 161 751 1282 769 1077 462 0

GFSSE_con_mlcape_150.txt.gz
CAPE
253 341 974 717 511 554 571 324 91 121 240 301 791 522 85 72 452 928 1223 744 1104 1351 1481 1403 1341 1285 1234 1141 1074 930 852 465 505 676 894 1000 1122 1238 1297 1319 1154 1757 2224
181 216 702 919 877 647 903 678 397 82 188 854 1044 906 853 6 229 1229 1323 1351 1410 1434 990 1068 1196 1182 1175 1337 1390 1391 1270 1154 1372 1629 1816 1545 1660 1770 1675 1286 1409 1537 1752
92 139 148 832 861 883 509 104 152 239 515 1170 1157 1108 904 837 1103 1314 1356 1409 981 1092 1414 1360 1325 1368 1634 1875 1896 1695 1569 1692 1525 1392 1450 1137 1592 1789 1816 1983 1703 1307 1560
84 145 77 235 702 764 425 674 677 92 616 1203 1214 909 999 956 1254 988 1128 769 1171 1395 1114 1097 1252 1292 951 935 808 471 487 886 1112 1118 1189 1151 968 1431 1556 1547 1758 1837 1951
2 39 274 310 190 231 111 265 701 931 347 861 1139 1227 1187 1312 703 1225 1294 1155 1285 1074 963 1092 1099 1345 1131 864 351 58 183 556 1280 1279 1014 1065 1023 2070 1873 1625 1897 1814 1898
5 7 153 133 115 110 163 135 258 507 698 837 1044 1149 918 1083 1348 1227 1069 1010 1096 750 842 1554 1391 1263 1237 1153 449 111 180 435 994 310 305 460 840 1240 1218 1422 1616 1737 1824
0 3 33 58 48 31 30 147 168 78 732 877 726 1101 952 1086 1204 1075 872 882 909 728 1014 1571 1424 1033 1361 1246 283 156 235 594 815 654 475 369 328 605 689 590 463 445 503
0 0 3 25 28 29 10 78 0 0 11 457 630 1015 893 679 916 945 926 952 846 645 709 1182 1210 1199 991 724 405 228 322 823 732 756 715 618 825 991 1024 984 1074 1160 1217
0 0 21 46 23 36 18 43 51 44 0 130 603 1125 1092 811 735 653 706 716 748 702 531 492 670 723 744 807 525 461 639 1203 1422 1042 1013 825 1071 1341 1463 1570 1709 1827 1891
1 89 113 222 50 16 5 30 42 60 76 603 813 601 921 362 519 659 504 650 733 599 377 261 269 434 522 426 430 500 575 1012 1240 835 806 684 1057 1475 2251 2604 2688 2756 2767
185 163 185 252 116 111 127 164 169 224 187 409 635 799 621 1037 805 603 770 341 531 562 485 279 352 424 571 638 736 1040 1270 1704 1092 967 708 719 1074 1706 2052 2325 2562 2671 2651
115 125 250 223 145 127 72 55 38 47 214 223 529 674 638 844 106 21 0 37 226 587 553 516 661 961 1520 1603 907 1216 1821 1307 1032 916 867 1077 1323 1745 2064 2493 2884 3212 3153
181 44 83 177 192 179 82 135 22 166 256 468 294 1045 855 171 78 0 84 183 548 579 727 908 1361 1488 1767 2092 1614 1308 1268 1295 1341 1235 1051 1476 1907 2275 2522 2829 3162 3529 3371
235 0 0 0 48 202 210 240 182 472 751 264 536 1053 987 725 797 807 1208 1385 1401 1559 1657 1613 1292 852 1060 878 727 677 1000 1376 1736 1781 1894 1754 1861 2457 2612 2825 3319 3150 2965
450 206 2 162 123 122 338 403 417 813 177 696 895 745 793 1149 94 252 352 1042 1246 711 641 727 990 1106 871 1019 1052 1223 1371 1647 2098 2651 2412 1721 1877 2357 2836 3363 2936 2614 2449
843 759 99 374 333 294 536 174 282 125 155 709 577 1343 0 439 726 0 73 469 502 1227 1037 679 1473 1593 1279 821 1213 1848 2106 2837 2758 2694 2355 1874 2034 2388 2795 2777 2708 2424 2371
518 849 724 606 340 652 429 301 365 98 112 605 661 1383 35 505 1081 2 100 701 1168 388 649 580 1106 1319 1270 933 1436 1831 2437 2585 2918 2511 1664 1747 2063 2007 1816 1812 1712 1688 2038
174 426 575 544 564 575 1119 435 129 28 224 268 616 1048 1265 1281 1745 1191 554 864 216 748 1314 758 952 936 638 819 1067 1672 1773 2426 2616 2039 1240 1158 1488 2147 1525 1488 1644 1771 1582
122 274 284 557 692 602 1223 88 590 867 255 267 153 565 1100 1162 1695 905 195 0 14 270 950 1259 1123 1106 381 836 1 6 1901 2042 1773 1476 1146 1060 1264 883 1870 1443 1628 1757 1308
63 124 117 448 888 1069 720 861 604 863 862 1019 284 0 1076 984 1681 2342 300 30 62 162 73 2887 1816 1431 1531 1963 894 42 173 177 291 1779 1660 1216 516 510 1164 1913 1939 1652 991
67 80 171 791 686 1270 652 822 596 185 527 885 968 1265 887 1007 1678 1949 108 0 0 1 559 2823 2862 2439 1968 1580 366 0 0 0 10 198 641 814 572 768 1214 1978 2293 1977 1172
96 38 148 846 601 914 1055 899 672 629 707 773 627 1120 1007 1145 1625 1823 1746 19 0 1 1639 2436 1853 10 0 1354 1204 28 1 1 79 716 779 641 764 1118 1744 1716 2139 2134 1714
425 230 455 818 921 1297 1340 1057 410 1053 235 877 988 1317 703 999 1390 1666 1497 1720 325 0 135 1545 1878 1721 316 2027 1439 1007 531 534 641 269 241 627 741 1703 139 50 1998 1081 1217
758 640 775 942 1171 1248 1272 669 842 622 657 405 553 1145 631 742 932 1214 1260 1210 1694 542 1065 2010 2299 2334 1900 2000 1555 1018 1351 838 874 467 66 117 102 1101 795 934 392 146 66
462 728 831 1333 1315 1159 1231 878 773 662 814 742 668 1209 939 890 964 973 1295 1604 1728 1882 1683 2004 1977 2046 2356 2275 2071 2164 1152 81 0 92 2 0 1 3 1003 864 182 0 0
339 570 1048 1187 1140 986 1077 822 934 766 291 428 1144 926 422 1349 835 898 694 1242 1344 1455 1814 1594 1870 2315 2302 2008 1321 1880 1576 907 905 589 268 27 14 222 130 415 6 0 0